Regional Weather Roundup
Issued by NWS

Home | Current Version | Previous Version | Graphics & Text | Print | Product List | Glossary On
Versions: 1 2 3 4 5 6 7 8 9 10 11 12 13 14 15 16 17 18 19 20 21 22 23 24 25 26 27 28 29 30 31 32 33 34 35 36 37 38 39 40 41 42 43 44 45 46 47 48 49 50
000
ASUS44 KMEG 290610
RWRTN
TENNESSEE HOURLY STATE WEATHER ROUNDUP
NATIONAL WEATHER SERVICE MEMPHIS TN
100 AM CDT THU SEP 29 2016

TNZ002-004-019-021-049-052-054-088>092-290700-
WEST TENNESSEE

CITY           SKY/WX    TMP DP  RH WIND       PRES   REMARKS
MEMPHIS INTL   CLEAR     62  47  57 NE7       30.10R
NWS MEMPHIS      N/A     60 N/A N/A MISG        N/A
JACKSON          N/A    N/A N/A N/A MISG      30.09S
DYERSBURG      CLEAR    N/A N/A N/A MISG        N/A
UNION CITY     CLEAR     50  46  87 W3        30.08F
PARIS          CLEAR     48  45  87 CALM      30.08S
HUNTINGDON     CLEAR     54  46  76 CALM      30.06F
LEXINGTON      CLEAR     52  45  76 CALM      30.07S
$$

TNZ008-025-027-028-033-062-065-066-290700-
NORTH MIDDLE TENNESSEE

CITY           SKY/WX    TMP DP  RH WIND       PRES   REMARKS
NASHVILLE      CLEAR     56  46  69 NW9       30.05S
PORTLAND       CLEAR     50  48  93 CALM      30.03F
CLARKSVILLE    CLEAR     50  44  80 W6        30.05F
SMYRNA         CLEAR     53  48  83 NW7       30.05S
COOKEVILLE     PTCLDY    54  54 100 CALM      30.01S
GALLATIN       CLEAR     54  48  82 CALM      30.05F
CROSSVILLE     CLOUDY    54  50  86 W5        30.01S
$$

TNZ061-075-076-078-094-096-097-290700-
SOUTH MIDDLE TENNESSEE

CITY           SKY/WX    TMP DP  RH WIND       PRES   REMARKS
FAYETTEVILLE   CLOUDY    61  50  67 N13G18    30.02F
TULLAHOMA      MOCLDY    55  50  82 N7        30.03F
WINCHESTER     MOCLDY    57  52  82 N3        30.02S
MCMINNVILLE    MOCLDY    57  55  94 NW5       30.02S
COLUMBIA       CLEAR     55  52  88 N3        30.04S
SHELBYVILLE    CLEAR     55  52  88 NW3       30.05S
$$

TNZ017-018-042-046-047-290700-
NORTHEAST TENNESSEE

CITY           SKY/WX    TMP DP  RH WIND       PRES   REMARKS
TRI CITIES     CLEAR     57  51  80 N5        29.98F
ELIZABETHTON   CLEAR     54  52  94 CALM      29.97S
$$

TNZ012-013-036-069-073-074-290700-
CENTRAL EAST TENNESSEE

CITY           SKY/WX    TMP DP  RH WIND       PRES   REMARKS
KNOXVILLE      MOCLDY    63  54  72 CALM      29.97S
OAK RIDGE      CLOUDY    64  53  67 E3        29.99R
DOWNTOWN KNOXV MOCLDY    64  57  77 CALM      29.97F
GATLINBURG     CLEAR     57  52  82 CALM      29.98F
MORRISTOWN     PTCLDY    59  54  82 SE5       29.98R
JACKSBORO      MOCLDY    59  55  88 CALM      30.02R
$$

TNZ083-085-099-290700-
SOUTHEAST TENNESSEE

CITY           SKY/WX    TMP DP  RH WIND       PRES   REMARKS
CHATTANOOGA    CLEAR     63  49  60 N7        29.98S
$$

SKY/WX REPORTED AS FAIR MEANS FEW OR NO CLOUDS BELOW
12 THOUSAND FEET.





USA.gov is the U.S. government's official web portal to all federal, state and local government web resources and services.